Location: Saint-Palais-sur-Mer
(45.6429°N, 1.0859°W)
Time: 21:16:29
(UTC+02:00)

CUBEBUG 2 - Pass Details

Date: 30 April 2024
Orbit: 570 x 669 km, 97.8° (Epoch: 19 May)

Event Time Altitude Azimuth Distance (km) Brightness Sun altitude
Rises 04:13:50 0° 14° (NNE) 2,812 ? -22.5°
Reaches altitude 10° 04:15:59 10° 15° (NNE) 1,919 ? -22.3°
Maximum altitude 04:20:08 79° 101° (ESE) 613 ? -21.8°
Enters shadow 04:20:49 61° 172° (S) 681 ? -21.8°
